Romorantin, France

1:03 PM CEST on March 26, 2017 (GMT +0200)
Pruniers Air Base

Weather History for LFYR - November, 2012

Change the Weather History Date:

Thursday, November 1, 2012

  Actual Average Record
Temperature  
Mean Temperature 48 °F -  
Max Temperature 53 °F - - ()
Min Temperature 42 °F - - ()
Degree Days  
Heating Degree Days 18    
Moisture  
Dew Point 45 °F    
Average Humidity 87    
Maximum Humidity 94    
Minimum Humidity 67    
Precipitation  
Precipitation 0.00 in - - ()
Sea Level Pressure  
Sea Level Pressure 29.24 in    
Wind  
Wind Speed 11 mph ()    
Max Wind Speed 18 mph    
Max Gust Speed 31 mph    
T = Trace of Precipitation, MM = Missing Value Source: Averaged Metar Reports

Daily Weather History Graph

Daily Weather History Graph

Search for Another Location

Airport or City:

Trip Planner

Search our weather history database for the weather conditions in past years. The results will help you decide how hot, cold, wet, or windy it might be!

Date:

Astronomy

Nov. 01, 2012 Rise Set
Actual Time 7:37 AM CET 5:35 PM CET
Civil Twilight 7:04 AM CET 6:08 PM CET
Nautical Twilight 6:28 AM CET 6:44 PM CET
Astronomical Twilight 5:53 AM CET 7:19 PM CET
Moon 7:12 PM CET (11/1) 10:05 AM CET (11/1)
Length of Visible Light 11h 03m
Length of Day
9h 58m
Waning Gibbous, 94% of the Moon is Illuminated
Nov 1
Waning Gibbous
Nov 7
Last Quarter
Nov 13
New
Nov 20
First Quarter
Nov 28
Full

Hourly Weather History & Observations

Time (CET) Temp. Windchill Dew Point Humidity Pressure Visibility Wind Dir Wind Speed Gust Speed Precip Events Conditions
12:00 AM 48.2 °F - 46.4 °F 93% 29.27 in - South 10.4 mph - N/A   Unknown
1:00 AM 48.2 °F - 46.4 °F 93% 29.24 in - South 9.2 mph - N/A   Unknown
2:00 AM 48.2 °F - 46.4 °F 93% 29.21 in - South 8.1 mph - N/A   Unknown
3:00 AM 50.0 °F - 46.4 °F 87% 29.21 in - South 11.5 mph - N/A   Unknown
4:00 AM 50.0 °F - 46.4 °F 87% 29.18 in - South 12.7 mph - N/A   Unknown
5:00 AM 51.8 °F - 48.2 °F 88% 29.15 in - South 15.0 mph - N/A   Unknown
6:00 AM 51.8 °F - 48.2 °F 88% 29.12 in - SSW 16.1 mph - N/A   Unknown
7:00 AM 50.0 °F - 48.2 °F 94% 29.12 in - South 17.3 mph - N/A   Unknown
8:00 AM 50.0 °F - 48.2 °F 94% 29.12 in - South 18.4 mph 31.1 mph N/A   Unknown
9:00 AM 50.0 °F - 48.2 °F 94% 29.12 in - SSW 18.4 mph - N/A   Unknown
10:00 AM 48.2 °F - 46.4 °F 93% 29.18 in - SW 8.1 mph - N/A   Unknown
11:00 AM 50.0 °F - 48.2 °F 94% 29.18 in - SW 11.5 mph - N/A   Unknown
12:00 PM 51.8 °F - 46.4 °F 82% 29.18 in - SW 13.8 mph - N/A   Unknown
1:00 PM 53.6 °F - 44.6 °F 72% 29.21 in - SW 13.8 mph 26.5 mph N/A   Unknown
2:00 PM 53.6 °F - 42.8 °F 67% 29.21 in - SW 12.7 mph - N/A   Unknown
3:00 PM 50.0 °F - 44.6 °F 82% 29.21 in - SW 9.2 mph - N/A   Unknown
4:00 PM 50.0 °F - 44.6 °F 82% 29.27 in - SW 13.8 mph - N/A   Unknown
5:00 PM 50.0 °F - 42.8 °F 76% 29.27 in - SW 13.8 mph - N/A   Unknown
6:00 PM 48.2 °F - 44.6 °F 87% 29.30 in - SSW 12.7 mph - N/A   Unknown
7:00 PM 48.2 °F - 44.6 °F 87% 29.36 in - SW 11.5 mph - N/A   Unknown
8:00 PM 42.8 °F 38.0 °F 41.0 °F 93% 29.39 in - SW 8.1 mph - N/A   Unknown
9:00 PM 42.8 °F 38.6 °F 41.0 °F 93% 29.42 in - SW 6.9 mph - N/A   Unknown
10:00 PM 44.6 °F 39.7 °F 41.0 °F 87% 29.44 in - SSW 9.2 mph - N/A   Unknown
11:00 PM 44.6 °F 41.4 °F 41.0 °F 87% 29.47 in - SW 5.8 mph - N/A   Unknown